Bismarck, ND

5:38 PM CDT on April 23, 2017 (GMT -0500)
Bismarck Municipal

Weather History for KBIS - November, 2013

Change the Weather History Date:

Monday, November 25, 2013

  Actual Average Record
Temperature  
Mean Temperature 30 °F 24 °F  
Max Temperature 36 °F 34 °F 71 °F (1960)
Min Temperature 23 °F 14 °F -20 °F (1977)
Degree Days  
Heating Degree Days 35 41  
Month to date heating degree days 906 861  
Since 1 July heating degree days 1744 1773  
Cooling Degree Days 0 0  
Month to date cooling degree days 0 0  
Year to date cooling degree days 555 520  
Moisture  
Dew Point 21 °F    
Average Humidity 70    
Maximum Humidity 84    
Minimum Humidity 56    
Precipitation  
Precipitation 0.00 in 0.01 in 0.97 in (1908)
Month to date precipitation 0.09 0.62  
Year to date precipitation 25.49 17.27  
Snow  
Snow 0.00 in 0.30 in 9.50 in (1908)
Month to date snowfall 0.6 7.3  
Since 1 July snowfall 1.6 9.7  
Since 1 September snowfall 1.6 9.7  
Snow Depth 0.00 in    
Sea Level Pressure  
Sea Level Pressure 30.21 in    
Wind  
Wind Speed 14 mph (NW)    
Max Wind Speed 25 mph    
Max Gust Speed 35 mph    
Visibility 10 miles    
Events      
T = Trace of Precipitation, MM = Missing Value Source: NWS Daily Summary

Daily Weather History Graph

Daily Weather History Graph

Search for Another Location

Airport or City:

Trip Planner

Search our weather history database for the weather conditions in past years. The results will help you decide how hot, cold, wet, or windy it might be!

Date:

Astronomy

Nov. 25, 2013 Rise Set
Actual Time 7:59 AM CST 4:59 PM CST
Civil Twilight 7:25 AM CST 5:33 PM CST
Nautical Twilight 6:48 AM CST 6:11 PM CST
Astronomical Twilight 6:12 AM CST 6:47 PM CST
Moon No Moon Rise 1:03 PM CST (11/25)
Length of Visible Light 10h 07m
Length of Day
8h 59m
Waning Gibbous, 51% of the Moon is Illuminated
Nov 25
Waning Gibbous
Nov 25
Last Quarter
Dec 2
New
Dec 9
First Quarter
Dec 17
Full

Hourly Weather History & Observations

Time (CST) Temp. Windchill Dew Point Humidity Pressure Visibility Wind Dir Wind Speed Gust Speed Precip Events Conditions
12:52 AM 35.1 °F 25.2 °F 26.1 °F 70% 30.01 in 10.0 mi NW 16.1 mph 24.2 mph N/A   Clear
1:52 AM 34.0 °F 25.0 °F 25.0 °F 70% 30.03 in 10.0 mi WNW 12.7 mph - N/A   Clear
2:52 AM 33.1 °F 24.4 °F 25.0 °F 72% 30.04 in 10.0 mi WNW 11.5 mph - N/A   Clear
3:52 AM 30.9 °F 22.2 °F 24.1 °F 76% 30.06 in 10.0 mi WNW 10.4 mph - N/A   Clear
4:52 AM 28.9 °F 21.1 °F 23.0 °F 78% 30.09 in 10.0 mi West 8.1 mph - N/A   Clear
5:52 AM 27.0 °F 18.0 °F 23.0 °F 85% 30.12 in 10.0 mi WNW 9.2 mph - N/A   Clear
6:52 AM 27.0 °F 18.0 °F 21.9 °F 81% 30.14 in 10.0 mi West 9.2 mph - N/A   Clear
7:52 AM 27.0 °F 18.7 °F 21.9 °F 81% 30.16 in 10.0 mi West 8.1 mph - N/A   Clear
8:52 AM 27.0 °F 18.7 °F 21.9 °F 81% 30.17 in 10.0 mi West 8.1 mph - N/A   Clear
9:52 AM 30.9 °F 23.5 °F 23.0 °F 72% 30.19 in 10.0 mi West 8.1 mph - N/A   Partly Cloudy
10:52 AM 34.0 °F 25.5 °F 23.0 °F 64% 30.20 in 10.0 mi WNW 11.5 mph 21.9 mph N/A   Mostly Cloudy
11:52 AM 35.1 °F 24.5 °F 21.9 °F 59% 30.21 in 10.0 mi NW 18.4 mph 26.5 mph N/A   Mostly Cloudy
12:34 PM 34.0 °F 23.4 °F 21.9 °F 61% 30.15 in 10.0 mi NW 17.3 mph 24.2 mph N/A   Overcast
12:52 PM 35.1 °F 25.9 °F 21.9 °F 59% 30.21 in 10.0 mi NW 13.8 mph 23.0 mph N/A   Overcast
1:52 PM 34.0 °F 24.6 °F 21.0 °F 59% 30.22 in 10.0 mi NW 13.8 mph 25.3 mph N/A   Overcast
2:38 PM 33.1 °F 21.5 °F 21.0 °F 61% 30.17 in 10.0 mi NNW 19.6 mph 31.1 mph N/A   Overcast
2:52 PM 33.1 °F 21.9 °F 21.0 °F 61% 30.24 in 10.0 mi NW 18.4 mph 34.5 mph N/A   Overcast
3:52 PM 33.1 °F 23.0 °F 21.0 °F 61% 30.25 in 10.0 mi NW 15.0 mph 26.5 mph N/A   Overcast
4:52 PM 32.0 °F 22.1 °F 21.0 °F 64% 30.26 in 10.0 mi NW 13.8 mph - N/A   Overcast
5:52 PM 32.0 °F 21.2 °F 21.0 °F 64% 30.27 in 10.0 mi NW 16.1 mph 27.6 mph N/A   Overcast
6:52 PM 30.9 °F 20.7 °F 21.0 °F 67% 30.28 in 10.0 mi NW 13.8 mph 24.2 mph N/A   Overcast
7:52 PM 30.0 °F 20.5 °F 19.9 °F 66% 30.30 in 10.0 mi NNW 11.5 mph 20.7 mph N/A   Overcast
8:52 PM 28.9 °F 15.8 °F 19.0 °F 67% 30.32 in 10.0 mi NW 20.7 mph 27.6 mph N/A   Overcast
9:52 PM 28.0 °F 15.7 °F 19.0 °F 69% 30.32 in 10.0 mi NNW 17.3 mph 25.3 mph N/A   Overcast
10:28 PM 27.0 °F 13.9 °F 17.1 °F 66% 30.27 in 10.0 mi NNW 18.4 mph 27.6 mph N/A   Overcast
10:52 PM 27.0 °F 13.5 °F 15.1 °F 61% 30.34 in 10.0 mi NNW 19.6 mph 32.2 mph N/A   Overcast
11:52 PM 23.0 °F 8.7 °F 14.0 °F 68% 30.37 in 10.0 mi NNW 18.4 mph 24.2 mph N/A   Overcast